THORAD AGENA D DEB, 4842

Orbit data source: Space-Track

THORAD AGENA D DEB, 4842 is space debris in SSO originally from a launch on Wed, 08 Apr 1970 UTC launched from the Air Force Western Test Range (AFWTR). Debris objects in space refer to the collection of defunct objects orbiting the Earth. Examples of debris include non-operational satellites, rocket bodies, and fragments generated from explosions, collisions, or faulty payload assembly.

Loading next visibility...
Identifier
4842, 1970-025EE
Orbit
SSO
Country
Flag of USUS
Related business
Manufacturer
Unknown
Mission
Spacecraft
Bus & Motor
Unknown
Mass
Unknown
Launch date (UTC)
1970-04-08 (56 years ago)
Launch vehicle
Unknown
Launch site
Air Force Western Test Range (AFWTR)
Object type
Payload
Rocket body
Debris
Shape & HBR
Unknown shape, 0.1 m
Radar Cross Section
Medium (>0.1 m² and <1 m²)

Expand to show TLE details & history
Last TLE update: 11 hours ago

TLE from 11 hours ago
0 THORAD AGENA D DEB
1  4842U 70025EE  26062.93884108  .00003255  00000-0  18752-2 0  9999
2  4842  99.9444  57.5653 0015021 187.3446 172.7503 14.09918198808070
Epoch: 2026-03-03T22:31Z
TLE epoch observation values (Epoch: 2026-03-03T22:31:55.869Z)
Latitude
-0°
Longitude
-82.1282°
Altitude
873.298 km
Speed
7.41 km/s
True Right ascension
03h 50m 15s
True Declination
0° 00' 00"
Sunlit
Object was in daylight at epoch
Visualization orbit readout
Latitude
Unknown
Longitude
Unknown
Altitude
Unknown
Speed
Unknown
Apparent Right ascension
Unknown
Apparent Declination
Unknown
Sunlit
N/A
Visualization observer readout
Local Sidereal Time
13:44:35
Azimuth
Unknown
Elevation
Unknown
Doppler factor
Unknown
Orbital elements
Apogee altitude
867.754 km
Perigee altitude
846.019 km
Semi-major axis
7,235.024 km
Eccentricity
0.0015
Inclination
99.9444°
RAAN
57.5653°
Arg. of periapsis
187.3446°
True anomaly
172.77198°
Mean anomaly
172.7503°
Eccentric anomaly
172.76114°
Mean motion
3.52682 °/min
Orbital period
102.07 mins
BSTAR
0.0018752
Loading maneuver chart data...
Computing Atmospheric mass density...

Documentation

Showing up to 5 results
|